Location: Melbourne
(37.8170°S, 144.9670°E)
Time: 08:47:49
(UTC+11:00)

Explorer 11/Cluster Stage 4 - Visible Passes

Search period start: 25 March 2017 00:00
Search period end: 03 April 2017 23:00
Orbit: 467 x 1263 km, 28.8° (Epoch: 23 March)

Date Brightness Start Highest point End Pass type
(mag) Time Alt. Az. Time Alt. Az. Time Alt. Az.
25 Mar 9.1 04:18:26 19° NE 04:18:26 19° NE 04:22:21 10° ENE visible
25 Mar 8.3 06:00:38 19° NW 06:05:24 38° NNE 06:12:50 10° ENE visible
26 Mar 9.1 04:09:06 18° NE 04:09:06 18° NE 04:12:15 10° ENE visible
26 Mar 8.2 05:51:17 23° NW 05:55:08 39° NNE 06:02:34 10° ENE visible
27 Mar 9.2 03:59:45 17° ENE 03:59:45 17° ENE 04:02:07 10° ENE visible
27 Mar 8.1 05:41:56 28° NW 05:44:53 40° N 05:52:16 10° ENE visible
28 Mar 9.4 03:50:24 15° ENE 03:50:24 15° ENE 03:51:56 10° ENE visible
28 Mar 7.9 05:32:35 33° NNW 05:34:38 40° N 05:41:57 10° ENE visible
29 Mar 9.5 03:41:02 12° ENE 03:41:02 12° ENE 03:41:43 10° ENE visible
29 Mar 7.8 05:23:14 38° NNW 05:24:25 40° N 05:31:37 10° ENE visible
30 Mar 7.7 05:13:54 40° N 05:14:12 40° N 05:21:15 10° ENE visible
30 Mar 8.3 06:56:30 10° WNW 07:02:55 35° N 07:10:06 10° NE visible
31 Mar 7.8 05:04:35 38° NNE 05:04:35 38° NNE 05:10:52 10° ENE visible
31 Mar 8.3 06:46:47 11° WNW 06:52:40 33° NNW 06:59:35 10° NE visible
01 Apr 8.1 04:55:19 34° NNE 04:55:19 34° NNE 05:00:27 10° ENE visible
01 Apr 8.3 06:37:30 13° WNW 06:42:26 30° NNW 06:49:00 10° NE visible
02 Apr 8.4 03:46:04 28° NE 03:46:04 28° NE 03:50:01 10° ENE visible
02 Apr 8.4 05:28:16 16° WNW 05:32:14 26° NNW 05:38:22 10° NE visible
03 Apr 8.7 03:36:52 21° NE 03:36:52 21° NE 03:39:35 10° ENE visible
03 Apr 8.4 05:19:05 17° NW 05:22:02 23° NNW 05:27:39 10° NNE visible
